Regional Weather Roundup
Issued by NWS

Home | Current Version | Previous Version | Graphics & Text | Print | Product List | Glossary On
Versions: 1 2 3 4 5 6 7 8 9 10 11 12 13 14 15 16 17 18 19 20 21 22 23 24 25 26 27 28 29 30 31 32 33 34 35 36 37 38 39 40 41 42 43 44 45 46 47 48 49 50
000
ASUS45 KABQ 250401
RWRNM
NEW MEXICO REGIONAL WEATHER ROUNDUP
NATIONAL WEATHER SERVICE ALBUQUERQUE NM
1000 PM MDT WED MAY 24 2017

NOTE: "FAIR" MEANS FEW OR NO CLOUDS BELOW 12,000 FEET AGL WITH NO
       SIGNIFICANT WEATHER OR OBSTRUCTIONS TO VISION.

      THIS PRODUCT IS RELEASED AS TWO VERSIONS.  ONE VERSION NEAR
      THE TOP OF THE HOUR CONTAINING PRELIMINARY DATA FROM ALBUQUERQUE
      AND OTHER STATIONS.  A FINAL VERSION WITH ADDITIONAL DATA IS
      ISSUED ABOUT 10 MINUTES AFTER THE HOUR.

NMZ501-503-504-510>518-250500-
NORTHWEST PLATEAU/NORTHCENTRAL MOUNTAINS

CITY           SKY/WX    TMP DP  RH WIND       PRES   REMARKS
FARMINGTON     FAIR      68  23  18 SW7       29.73S
LOS ALAMOS     FAIR      70  19  14 W3        29.92S
SANTA FE       FAIR      62  26  25 NW9       29.84R
TAOS           FAIR      54  21  28 N9        29.90S

$$
NMZ402-403-502-505>509-250500-
WESTCENTRAL MOUNTAINS/SOUTHWEST MOUNTAINS

CITY           SKY/WX    TMP DP  RH WIND       PRES   REMARKS
GALLUP         FAIR      71  21  15 SW20G25   29.90R
GRANTS         FAIR      70  17  13 W14       29.92R
SILVER CITY    FAIR      64  19  17 NW12      29.91R

$$
NMZ407-409-411-412-250500-
SOUTHERN DESERTS

CITY           SKY/WX    TMP DP  RH WIND       PRES   REMARKS
DEMING         FAIR      78  16   9 W10       29.81R
LAS CRUCES     FAIR      80  17   9 W10       29.81R
HOLLOMAN AFB   FAIR      83  14   7 SW15      29.77R
ALAMOGORDO     FAIR      79  16   9 S8        29.76R
T OR C         FAIR      82  14   8 W14       29.79R

$$
NMZ519>523-250500-
CENTRAL VALLEYS/CENTRAL HIGHLANDS

CITY           SKY/WX    TMP DP  RH WIND       PRES   REMARKS
ALBUQUERQUE    FAIR      76  17  11 W5        29.79R
DOUBLE EAGLE   PTCLDY    63  19  19 W10       29.83R
MORIARTY ARPT  FAIR      62  23  22 W9        29.87R
CLINES CORNERS FAIR      62  20  19 W16       29.91R
BELEN          FAIR      66  16  14 W7        29.80R
SOCORRO        NOT AVBL

$$
NMZ524>526-539-540-250500-
SOUTHCENTRAL MOUNTAINS

CITY           SKY/WX    TMP DP  RH WIND       PRES   REMARKS
RUIDOSO        NOT AVBL

$$
NMZ527>531-250500-
NORTHEAST HIGHLANDS/NORTHEAST PLAINS

CITY           SKY/WX    TMP DP  RH WIND       PRES   REMARKS
LAS VEGAS      FAIR      67  21  17 W6        29.87R
RATON          FAIR      61  31  32 S7        29.77R
CLAYTON        FAIR      62  40  44 SW10      29.71R

$$
NMZ532>537-250500-
EASTCENTRAL PLAINS

CITY           SKY/WX    TMP DP  RH WIND       PRES   REMARKS
SANTA ROSA     FAIR      71  30  22 SW5       29.72R
TUCUMCARI      FAIR      64  47  53 W3        29.62R
CANNON AFB     FAIR      67  38  34 SW9       29.71R
CLOVIS AIRPORT FAIR      63  39  42 S5        29.70R

$$
NMZ028-029-538-250500-
SOUTHEAST PLAINS

CITY           SKY/WX    TMP DP  RH WIND       PRES   REMARKS
ROSWELL        FAIR      74  31  20 SW12      29.69R
ARTESIA        FAIR      77  32  19 SW13      29.70S
CARLSBAD       FAIR      72  36  26 SW8       29.69R
HOBBS          FAIR      73  34  23 S9        29.74R


$$




USA.gov is the U.S. government's official web portal to all federal, state and local government web resources and services.